COSMOS 2251 DEB

Satellite information

Favourite Embed

Satellite Type and Status

DEBRISIN ORBIT

Key statistics

Satellite COSMOS 2251 DEB at a glance.

Uptime

11868

Days in orbit

Revolutions

≈ 14.0

Per day

Orbit

LEO

Low Earth Orbit

Inclination

74.1

Latest

Satellite identification and parameters

Extended collection of information and parameters for COSMOS 2251 DEB.

Object identification

Identified? True

Debris? True

Object name: COSMOS 2251 DEB

International designator: 1993-036YK

Object number (NORAD): 34689

Object ID (CCSDS): 34689

Country: COMMONWEALTH OF INDEPENDENT STATES (CIS)

Current information (Y/N): Y

RCS size: SMALL

Orbital parameters

Period: 102.536 minutes

Inclination: 74.0977 deg

SMA: 7256.803 km

Apoapsis: 1044.682 km

Periapsis: 712.655 km

RAAN: 228.7634 deg

Eccentricy: 0.022877

Argument of periapsis: 298.3373 deg

Mean anomaly: 87.6678 deg

Mean motion: 14.04380278 rev/day

Mean motion (dot): 0.00011476 rev/day2

B* drag term: 0.0057121 1/REarth

Two-line elements (TLE)

Creation date: Dec. 9, 2025, 11:46 p.m.

Reference frame: TEME

Reference center: EARTH

Epoch: Dec. 9, 2025, 3:43 p.m. UTC

TLE line 0: 0 COSMOS 2251 DEB

TLE line 1: 1 34689U 93036YK 25343.65536116 .00011476 00000-0 57121-2 0 9998

TLE line 2: 2 34689 74.0977 228.7634 0228770 298.3373 87.6678 14.04380278842989

Live tracking on map

Real-time ground track for satellite COSMOS 2251 DEB.

In-orbit conjunctions

A list of the most updated potential collisions computed for object COSMOS 2251 DEB.

Target Orbit TCA Probability of collision Miss distance Type
COSMOS 1934 LEO 2025-11-29 14:56:06 0.0003281122 152.0 (m) PAYLOAD
SL-8 R/B LEO 2025-05-17 16:22:29 0.0001388441 190.0 (m) ROCKET BODY
IRIDIUM 29 LEO 2025-02-25 16:14:02 0.0003546407 526.0 (m) PAYLOAD
FENGYUN 1C DEB SSO 2024-11-14 08:24:29 0.0003331024 282.0 (m) DEBRIS
FENGYUN 1C DEB SSO 2024-11-13 04:11:15 0.0001524587 639.0 (m) DEBRIS

Associated space launch

Military communications satellite. Destroyed in a collision with Iridium 33.

COSMOS 2251 DEB was lifted into orbit during the mission ‘Kosmos-3M | Strela-2M 51’, on board a Kosmos-3M space rocket.

The launch took place on June 16, 1993, 4:17 a.m. from 132/1 (132L).

For more information about the launch, click the button.

Launch to space Kosmos-3M | Strela-2M 51
Kosmos-3M | Strela-2M 51

Agency: N/A

Status: Launch Successful

Launch date: June 16, 1993, 4:17 a.m. UTC

Rocket: Kosmos-3M

Launch pad: 132/1 (132L)

Location: Plesetsk Cosmodrome, Russian Federation

...

Latest news about this satellite

There are no fresh news available about this satellite. Check back as we update our databases every day.


Newsletter sign-up

Weekly statistics, charts and insights to help you stay on top of the space industry.